Location: Alma
(38.7220°N, 88.9090°W)
Time: 16:30:10
(UTC-06:00)

Tiros 1 - All Passes

Search period start: 15 November 2019 00:00
Search period end: 25 November 2019 00:00
Orbit: 630 x 664 km, 48.4° (Epoch: 14 November)

Date Brightness Start Highest point End Pass type
(mag) Time Alt. Az. Time Alt. Az. Time Alt. Az.
15 Nov - 14:06:15 10° SSW 14:10:09 28° SE 14:14:05 10° ENE daylight
15 Nov - 15:47:33 10° WSW 15:52:07 60° NNW 15:56:43 10° NE daylight
15 Nov - 17:31:03 10° WNW 17:34:58 26° N 17:38:55 10° NE visible
15 Nov - 19:14:08 10° NW 19:18:11 28° NNE 19:22:16 10° ENE visible
15 Nov - 20:56:14 10° NW 21:00:56 74° NNE 21:05:39 10° ESE night (unlit)
15 Nov - 22:39:09 10° W 22:42:46 22° SW 22:46:25 10° S night (unlit)
16 Nov - 12:53:58 10° SE 12:54:33 10° SE 12:55:08 10° ESE daylight
16 Nov - 14:31:27 10° SW 14:36:00 63° SE 14:40:35 10° ENE daylight
16 Nov - 16:14:09 10° W 16:18:25 36° NNW 16:22:43 10° NE daylight
16 Nov - 17:57:44 10° NW 18:01:33 24° N 18:05:23 10° ENE visible
16 Nov - 19:40:14 10° NW 19:44:38 40° NNE 19:49:04 10° E visible
16 Nov - 21:22:23 10° WNW 21:26:57 54° SW 21:31:34 10° SE night (unlit)
17 Nov - 13:16:23 10° S 13:20:10 25° SE 13:23:58 10° E daylight
17 Nov - 14:57:30 10° WSW 15:02:04 64° NNW 15:06:41 10° NE daylight
17 Nov - 16:40:57 10° WNW 16:44:53 27° N 16:48:52 10° NE daylight
17 Nov - 18:24:06 10° NW 18:28:07 27° N 18:32:08 10° ENE visible
17 Nov - 20:06:13 10° NW 20:10:53 69° NNE 20:15:35 10° ESE visible
17 Nov - 21:49:01 10° W 21:52:47 24° SW 21:56:33 10° S night (unlit)
18 Nov - 13:41:29 10° SW 13:46:00 58° SE 13:50:32 10° ENE daylight
18 Nov - 15:24:03 10° W 15:28:22 37° NNW 15:32:41 10° NE daylight
18 Nov - 17:07:40 10° NW 17:11:27 24° N 17:15:17 10° NE visible
18 Nov - 18:50:13 10° NW 18:54:34 38° NNE 18:58:57 10° E visible
18 Nov - 20:32:20 10° WNW 20:36:56 58° SW 20:41:34 10° SE visible
19 Nov - 12:26:32 10° S 12:30:11 23° SE 12:33:51 10° E daylight
19 Nov - 14:07:27 10° WSW 14:12:02 69° NNW 14:16:40 10° NE daylight
19 Nov - 15:50:51 10° WNW 15:54:49 27° N 15:58:48 10° NE daylight
19 Nov - 17:34:04 10° NW 17:38:02 27° N 17:42:01 10° ENE visible
19 Nov - 19:16:12 10° NW 19:20:51 65° NNE 19:25:31 10° ESE visible
19 Nov - 20:58:54 10° W 21:02:47 26° SW 21:06:41 10° S night (unlit)
20 Nov - 12:51:31 10° SW 12:55:59 53° SE 13:00:30 10° ENE daylight
20 Nov - 14:33:58 10° W 14:38:19 39° NNW 14:42:39 10° NE daylight
20 Nov - 16:17:35 10° NW 16:21:23 24° N 16:25:12 10° NE daylight
20 Nov - 18:00:12 10° NW 18:04:31 36° NNE 18:08:50 10° E visible
20 Nov - 19:42:18 10° WNW 19:46:55 63° SW 19:51:34 10° SE visible
20 Nov - 21:27:25 10° WSW 21:28:25 11° SW 21:29:25 10° SW night (unlit)
21 Nov - 11:36:42 10° S 11:40:12 21° SE 11:43:41 10° E daylight
21 Nov - 13:17:24 10° WSW 13:22:01 74° NNW 13:26:38 10° NE daylight
21 Nov - 15:00:45 10° WNW 15:04:45 28° NNW 15:08:45 10° NE daylight
21 Nov - 16:44:02 10° NW 16:47:58 26° N 16:51:53 10° ENE daylight
21 Nov - 18:26:12 10° NW 18:30:48 61° NNE 18:35:26 10° ESE visible
21 Nov - 20:08:48 10° WNW 20:12:47 28° SW 20:16:47 10° SSE visible
22 Nov - 12:01:32 10° SW 12:05:59 49° SE 12:10:26 10° ENE daylight
22 Nov - 13:43:52 10° W 13:48:15 41° NNW 13:52:38 10° NE daylight
22 Nov - 15:27:31 10° WNW 15:31:18 24° N 15:35:06 10° NE daylight
22 Nov - 17:10:11 10° NW 17:14:27 35° NNE 17:18:43 10° E visible
22 Nov - 18:52:16 10° WNW 18:56:54 69° SW 19:01:33 10° SE visible
22 Nov - 20:36:46 10° WSW 20:38:26 12° SW 20:40:07 10° SSW visible
23 Nov - 10:46:54 10° S 10:50:13 20° SE 10:53:32 10° E daylight
23 Nov - 12:27:21 10° WSW 12:31:59 79° NNW 12:36:37 10° NE daylight
23 Nov - 14:10:39 10° WNW 14:14:40 29° NNW 14:18:42 10° NE daylight
23 Nov - 15:53:59 10° NW 15:57:53 26° N 16:01:46 10° ENE daylight
23 Nov - 17:36:11 10° NW 17:40:46 57° NNE 17:45:22 10° ESE visible
23 Nov - 19:18:42 10° WNW 19:22:47 31° SW 19:26:53 10° SSE visible
24 Nov - 11:11:35 10° SSW 11:15:59 45° SE 11:20:23 10° ENE daylight
24 Nov - 12:53:47 10° W 12:58:12 43° NNW 13:02:37 10° NE daylight
24 Nov - 14:37:26 10° WNW 14:41:14 24° N 14:45:02 10° NE daylight
24 Nov - 16:20:10 10° NW 16:24:23 33° NNE 16:28:36 10° E daylight
24 Nov - 18:02:14 10° WNW 18:06:53 74° SW 18:11:32 10° SE visible
24 Nov - 19:46:20 10° WSW 19:48:27 13° SW 19:50:35 10° SSW visible
